Time,TemperatureF,DewpointF,PressureIn,WindDirection,WindDirectionDegrees,WindSpeedMPH,WindSpeedGustMPH,Humidity,HourlyPrecipIn,Conditions,Clouds,dailyrainin,SoftwareType,DateUTC
2013-04-21 00:08:00,39.8,33.0,30.32,North,5,0.0,0.0,77,0.00,,,0.00,weatherlink.com 1.10,2013-04-21 04:08:00,
2013-04-21 00:23:00,39.4,32.0,30.32,North,5,0.0,1.0,75,0.00,,,0.00,weatherlink.com 1.10,2013-04-21 04:23:00,
2013-04-21 00:38:00,38.9,33.0,30.32,North,5,0.0,1.0,78,0.00,,,0.00,weatherlink.com 1.10,2013-04-21 04:38:00,
2013-04-21 00:53:00,38.6,33.0,30.32,North,4,0.0,1.0,79,0.00,,,0.00,weatherlink.com 1.10,2013-04-21 04:53:00,
2013-04-21 01:08:00,38.1,32.0,30.32,North,5,1.0,1.0,79,0.00,,,0.00,weatherlink.com 1.10,2013-04-21 05:08:00,
2013-04-21 01:23:00,37.9,33.0,30.32,North,5,0.0,1.0,82,0.00,,,0.00,weatherlink.com 1.10,2013-04-21 05:23:00,
2013-04-21 01:38:00,37.6,33.0,30.32,North,5,0.0,0.0,83,0.00,,,0.00,weatherlink.com 1.10,2013-04-21 05:38:00,
2013-04-21 01:53:00,37.2,33.0,30.32,North,5,0.0,0.0,83,0.00,,,0.00,weatherlink.com 1.10,2013-04-21 05:53:00,
2013-04-21 02:08:00,37.0,33.0,30.32,North,5,0.0,1.0,84,0.00,,,0.00,weatherlink.com 1.10,2013-04-21 06:08:00,
2013-04-21 02:24:00,36.7,32.0,30.32,North,5,0.0,0.0,84,0.00,,,0.00,weatherlink.com 1.10,2013-04-21 06:24:00,
2013-04-21 02:39:00,36.5,33.0,30.32,North,5,0.0,0.0,86,0.00,,,0.00,weatherlink.com 1.10,2013-04-21 06:39:00,
2013-04-21 02:54:00,36.3,32.0,30.32,North,4,0.0,0.0,85,0.00,,,0.00,weatherlink.com 1.10,2013-04-21 06:54:00,
2013-04-21 03:09:00,36.1,33.0,30.32,North,5,0.0,1.0,87,0.00,,,0.00,weatherlink.com 1.10,2013-04-21 07:09:00,
2013-04-21 03:24:00,35.9,32.0,30.32,North,5,0.0,1.0,87,0.00,,,0.00,weatherlink.com 1.10,2013-04-21 07:24:00,
2013-04-21 03:39:00,35.7,33.0,30.32,North,4,0.0,0.0,88,0.00,,,0.00,weatherlink.com 1.10,2013-04-21 07:39:00,
2013-04-21 03:54:00,35.6,33.0,30.32,North,5,0.0,0.0,89,0.00,,,0.00,weatherlink.com 1.10,2013-04-21 07:54:00,
2013-04-21 04:09:00,35.3,32.0,30.33,North,4,0.0,0.0,89,0.00,,,0.00,weatherlink.com 1.10,2013-04-21 08:09:00,
2013-04-21 04:24:00,34.9,32.0,30.33,North,5,0.0,0.0,90,0.00,,,0.00,weatherlink.com 1.10,2013-04-21 08:24:00,
2013-04-21 04:39:00,34.7,32.0,30.34,North,5,0.0,0.0,91,0.00,,,0.00,weatherlink.com 1.10,2013-04-21 08:39:00,
2013-04-21 04:54:00,34.5,32.0,30.34,North,5,0.0,0.0,91,0.00,,,0.00,weatherlink.com 1.10,2013-04-21 08:54:00,
2013-04-21 05:09:00,34.3,32.0,30.34,North,5,0.0,0.0,91,0.00,,,0.00,weatherlink.com 1.10,2013-04-21 09:09:00,
2013-04-21 05:24:00,33.9,32.0,30.35,North,4,0.0,0.0,91,0.00,,,0.00,weatherlink.com 1.10,2013-04-21 09:24:00,
2013-04-21 05:39:00,34.0,32.0,30.35,North,5,0.0,0.0,92,0.00,,,0.00,weatherlink.com 1.10,2013-04-21 09:39:00,
2013-04-21 05:54:00,33.8,32.0,30.35,North,5,0.0,0.0,92,0.00,,,0.00,weatherlink.com 1.10,2013-04-21 09:54:00,
2013-04-21 06:09:00,33.6,32.0,30.36,North,5,0.0,0.0,92,0.00,,,0.00,weatherlink.com 1.10,2013-04-21 10:09:00,
2013-04-21 06:24:00,33.6,32.0,30.37,North,5,0.0,0.0,92,0.00,,,0.00,weatherlink.com 1.10,2013-04-21 10:24:00,
2013-04-21 06:39:00,33.4,32.0,30.37,North,5,0.0,0.0,93,0.00,,,0.00,weatherlink.com 1.10,2013-04-21 10:39:00,
2013-04-21 06:54:00,33.6,32.0,30.38,North,4,0.0,0.0,93,0.00,,,0.00,weatherlink.com 1.10,2013-04-21 10:54:00,
2013-04-21 07:09:00,34.1,32.0,30.38,North,5,0.0,1.0,93,0.00,,,0.00,weatherlink.com 1.10,2013-04-21 11:09:00,
2013-04-21 07:24:00,34.3,33.0,30.39,North,5,0.0,1.0,93,0.00,,,0.00,weatherlink.com 1.10,2013-04-21 11:24:00,
2013-04-21 07:39:00,34.5,33.0,30.39,North,5,0.0,0.0,93,0.00,,,0.00,weatherlink.com 1.10,2013-04-21 11:39:00,
2013-04-21 07:54:00,35.0,34.0,30.39,North,5,0.0,1.0,94,0.00,,,0.00,weatherlink.com 1.10,2013-04-21 11:54:00,
2013-04-21 08:09:00,36.3,35.0,30.39,North,4,0.0,0.0,94,0.00,,,0.00,weatherlink.com 1.10,2013-04-21 12:09:00,
2013-04-21 08:24:00,38.1,37.0,30.39,North,5,0.0,1.0,94,0.00,,,0.00,weatherlink.com 1.10,2013-04-21 12:24:00,
2013-04-21 08:39:00,39.9,38.0,30.40,North,4,0.0,0.0,94,0.00,,,0.00,weatherlink.com 1.10,2013-04-21 12:39:00,
2013-04-21 08:54:00,42.7,39.0,30.40,North,5,0.0,1.0,87,0.00,,,0.00,weatherlink.com 1.10,2013-04-21 12:54:00,
2013-04-21 09:09:00,44.1,40.0,30.40,North,5,0.0,0.0,84,0.00,,,0.00,weatherlink.com 1.10,2013-04-21 13:09:00,
2013-04-21 09:24:00,45.7,40.0,30.40,North,5,1.0,1.0,79,0.00,,,0.00,weatherlink.com 1.10,2013-04-21 13:24:00,
2013-04-21 09:39:00,46.6,39.0,30.40,North,9,1.0,1.0,75,0.00,,,0.00,weatherlink.com 1.10,2013-04-21 13:39:00,
2013-04-21 09:55:00,47.8,39.0,30.40,NNE,12,0.0,1.0,72,0.00,,,0.00,weatherlink.com 1.10,2013-04-21 13:55:00,
2013-04-21 10:10:00,49.4,40.0,30.41,NNE,12,1.0,1.0,69,0.00,,,0.00,weatherlink.com 1.10,2013-04-21 14:10:00,
2013-04-21 10:25:00,50.8,38.0,30.41,NNE,20,1.0,1.0,63,0.00,,,0.00,weatherlink.com 1.10,2013-04-21 14:25:00,
2013-04-21 10:40:00,52.3,39.0,30.41,West,267,0.0,1.0,61,0.00,,,0.00,weatherlink.com 1.10,2013-04-21 14:40:00,
2013-04-21 10:55:00,54.5,36.0,30.41,NNE,30,0.0,1.0,51,0.00,,,0.00,weatherlink.com 1.10,2013-04-21 14:55:00,
2013-04-21 11:10:00,57.1,38.0,30.40,SW,222,0.0,2.0,49,0.00,,,0.00,weatherlink.com 1.10,2013-04-21 15:10:00,
2013-04-21 11:25:00,57.5,34.0,30.40,East,91,1.0,3.0,42,0.00,,,0.00,weatherlink.com 1.10,2013-04-21 15:25:00,
2013-04-21 11:40:00,58.8,36.0,30.40,South,178,0.0,2.0,42,0.00,,,0.00,weatherlink.com 1.10,2013-04-21 15:40:00,
2013-04-21 11:55:00,60.2,34.0,30.40,SE,127,1.0,6.0,38,0.00,,,0.00,weatherlink.com 1.10,2013-04-21 15:55:00,
2013-04-21 12:10:00,62.2,35.0,30.39,SE,136,1.0,4.0,36,0.00,,,0.00,weatherlink.com 1.10,2013-04-21 16:10:00,
2013-04-21 12:25:00,62.9,34.0,30.39,South,183,2.0,5.0,34,0.00,,,0.00,weatherlink.com 1.10,2013-04-21 16:25:00,
2013-04-21 12:40:00,63.9,36.0,30.38,SW,228,1.0,3.0,35,0.00,,,0.00,weatherlink.com 1.10,2013-04-21 16:40:00,
2013-04-21 12:55:00,63.2,34.0,30.37,ESE,112,2.0,4.0,34,0.00,,,0.00,weatherlink.com 1.10,2013-04-21 16:55:00,
2013-04-21 13:10:00,63.3,34.0,30.37,North,1,1.0,3.0,34,0.00,,,0.00,weatherlink.com 1.10,2013-04-21 17:10:00,
2013-04-21 13:25:00,63.8,35.0,30.36,NW,321,2.0,6.0,34,0.00,,,0.00,weatherlink.com 1.10,2013-04-21 17:25:00,
2013-04-21 13:40:00,64.1,36.0,30.36,NNE,12,3.0,4.0,35,0.00,,,0.00,weatherlink.com 1.10,2013-04-21 17:40:00,
2013-04-21 13:55:00,64.7,36.0,30.36,NNW,327,2.0,4.0,34,0.00,,,0.00,weatherlink.com 1.10,2013-04-21 17:55:00,
2013-04-21 14:10:00,65.8,37.0,30.35,North,358,3.0,5.0,34,0.00,,,0.00,weatherlink.com 1.10,2013-04-21 18:10:00,
2013-04-21 14:25:00,66.0,34.0,30.34,WSW,253,2.0,6.0,31,0.00,,,0.00,weatherlink.com 1.10,2013-04-21 18:25:00,
2013-04-21 14:40:00,67.0,34.0,30.34,NNW,333,1.0,4.0,29,0.00,,,0.00,weatherlink.com 1.10,2013-04-21 18:40:00,
2013-04-21 14:55:00,67.0,36.0,30.33,NNW,338,3.0,5.0,32,0.00,,,0.00,weatherlink.com 1.10,2013-04-21 18:55:00,
2013-04-21 15:11:00,68.7,37.0,30.32,NNE,29,2.0,5.0,31,0.00,,,0.00,weatherlink.com 1.10,2013-04-21 19:11:00,
2013-04-21 15:26:00,68.3,35.0,30.32,North,355,1.0,3.0,29,0.00,,,0.00,weatherlink.com 1.10,2013-04-21 19:26:00,
2013-04-21 15:41:00,69.3,36.0,30.31,NNE,19,2.0,2.0,30,0.00,,,0.00,weatherlink.com 1.10,2013-04-21 19:41:00,
2013-04-21 15:56:00,68.2,34.0,30.31,NE,41,1.0,3.0,28,0.00,,,0.00,weatherlink.com 1.10,2013-04-21 19:56:00,
2013-04-21 16:11:00,68.6,36.0,30.30,SE,127,1.0,3.0,30,0.00,,,0.00,weatherlink.com 1.10,2013-04-21 20:11:00,
2013-04-21 16:26:00,70.0,35.0,30.29,SE,139,1.0,4.0,28,0.00,,,0.00,weatherlink.com 1.10,2013-04-21 20:26:00,
2013-04-21 16:41:00,70.8,36.0,30.28,SW,214,2.0,3.0,28,0.00,,,0.00,weatherlink.com 1.10,2013-04-21 20:41:00,
2013-04-21 16:56:00,69.8,35.0,30.28,South,190,3.0,5.0,28,0.00,,,0.00,weatherlink.com 1.10,2013-04-21 20:56:00,
2013-04-21 17:11:00,68.3,36.0,30.28,WSW,250,2.0,6.0,30,0.00,,,0.00,weatherlink.com 1.10,2013-04-21 21:11:00,
2013-04-21 17:26:00,67.9,36.0,30.28,SSW,194,3.0,5.0,31,0.00,,,0.00,weatherlink.com 1.10,2013-04-21 21:26:00,
2013-04-21 17:41:00,67.3,36.0,30.27,SSE,157,2.0,3.0,32,0.00,,,0.00,weatherlink.com 1.10,2013-04-21 21:41:00,
2013-04-21 17:56:00,66.0,35.0,30.27,SE,126,2.0,4.0,32,0.00,,,0.00,weatherlink.com 1.10,2013-04-21 21:56:00,
2013-04-21 18:11:00,64.9,34.0,30.28,SSW,195,1.0,4.0,32,0.00,,,0.00,weatherlink.com 1.10,2013-04-21 22:11:00,
2013-04-21 18:26:00,64.0,36.0,30.28,SSE,148,1.0,5.0,36,0.00,,,0.00,weatherlink.com 1.10,2013-04-21 22:26:00,
2013-04-21 18:41:00,63.2,36.0,30.29,SE,141,2.0,5.0,37,0.00,,,0.00,weatherlink.com 1.10,2013-04-21 22:41:00,
2013-04-21 18:56:00,62.5,35.0,30.30,SSE,158,1.0,5.0,36,0.00,,,0.00,weatherlink.com 1.10,2013-04-21 22:56:00,
2013-04-21 19:11:00,61.9,36.0,30.30,SSE,155,2.0,4.0,39,0.00,,,0.00,weatherlink.com 1.10,2013-04-21 23:11:00,
2013-04-21 19:26:00,61.0,37.0,30.31,SSW,208,4.0,8.0,41,0.00,,,0.00,weatherlink.com 1.10,2013-04-21 23:26:00,
2013-04-21 19:41:00,60.1,36.0,30.31,SSE,148,2.0,4.0,41,0.00,,,0.00,weatherlink.com 1.10,2013-04-21 23:41:00,
2013-04-21 19:56:00,59.5,36.0,30.32,SSE,148,3.0,5.0,42,0.00,,,0.00,weatherlink.com 1.10,2013-04-21 23:56:00,
2013-04-21 20:11:00,59.0,36.0,30.32,South,190,3.0,7.0,43,0.00,,,0.00,weatherlink.com 1.10,2013-04-22 00:11:00,
2013-04-21 20:26:00,58.4,36.0,30.32,SSE,160,4.0,5.0,44,0.00,,,0.00,weatherlink.com 1.10,2013-04-22 00:26:00,
2013-04-21 20:41:00,58.0,37.0,30.33,SSE,150,1.0,5.0,45,0.00,,,0.00,weatherlink.com 1.10,2013-04-22 00:41:00,
2013-04-21 20:56:00,57.4,37.0,30.34,SSE,156,1.0,4.0,47,0.00,,,0.00,weatherlink.com 1.10,2013-04-22 00:56:00,
2013-04-21 21:11:00,57.0,38.0,30.34,ESE,105,2.0,4.0,49,0.00,,,0.00,weatherlink.com 1.10,2013-04-22 01:11:00,
2013-04-21 21:26:00,56.4,38.0,30.35,SSE,162,2.0,3.0,50,0.00,,,0.00,weatherlink.com 1.10,2013-04-22 01:26:00,
2013-04-21 21:41:00,56.1,38.0,30.35,SE,145,1.0,3.0,51,0.00,,,0.00,weatherlink.com 1.10,2013-04-22 01:41:00,
2013-04-21 21:56:00,55.8,38.0,30.36,SE,146,1.0,3.0,51,0.00,,,0.00,weatherlink.com 1.10,2013-04-22 01:56:00,
2013-04-21 22:11:00,55.6,38.0,30.37,SE,142,0.0,4.0,52,0.00,,,0.00,weatherlink.com 1.10,2013-04-22 02:11:00,
2013-04-21 22:26:00,55.1,39.0,30.36,SE,131,1.0,5.0,55,0.00,,,0.00,weatherlink.com 1.10,2013-04-22 02:26:00,
2013-04-21 22:41:00,54.8,39.0,30.36,SSE,148,0.0,3.0,55,0.00,,,0.00,weatherlink.com 1.10,2013-04-22 02:41:00,
2013-04-21 22:56:00,54.0,39.0,30.36,SSE,147,0.0,1.0,57,0.00,,,0.00,weatherlink.com 1.10,2013-04-22 02:56:00,
2013-04-21 23:11:00,53.7,38.0,30.36,South,172,1.0,2.0,56,0.00,,,0.00,weatherlink.com 1.10,2013-04-22 03:11:00,
2013-04-21 23:26:00,53.4,39.0,30.36,SE,129,1.0,2.0,59,0.00,,,0.00,weatherlink.com 1.10,2013-04-22 03:26:00,
2013-04-21 23:41:00,52.7,39.0,30.35,ESE,110,0.0,1.0,60,0.00,,,0.00,weatherlink.com 1.10,2013-04-22 03:41:00,
2013-04-21 23:56:00,51.7,39.0,30.36,ESE,110,0.0,1.0,63,0.00,,,0.00,weatherlink.com 1.10,2013-04-22 03:56:00,